| time (UTC) | temp F | wind direction | speed MPH | gust MPH | rain 1hr in | rain 24hr in | rain mn in | humidity % | barometer mb |
| 20260504120302 | 76 | 43 | 8.0 | 16.0 | 0.00 | 0.00 | 0.00 | 64 | 1015.4 |
| 20260504110137 | 75 | 355 | 10.0 | 18.0 | 0.00 | 0.00 | 0.00 | 67 | 1014.9 |
| 20260504081755 | 75 | 22 | 6.0 | 15.0 | 0.00 | 0.03 | 0.00 | 70 | 1014.3 |
| 20260504080746 | 75 | 39 | 7.0 | 14.0 | 0.00 | 0.03 | 0.00 | 69 | 1014.1 |
| 20260504050400 | 75 | 35 | 6.0 | 13.0 | 0.00 | 0.03 | 0.00 | 69 | 1015.8 |
| 20260504045346 | 75 | 32 | 6.0 | 13.0 | 0.00 | 0.03 | 0.00 | 69 | 1015.7 |
| 20260504044404 | 75 | 86 | 5.0 | 13.0 | 0.00 | 0.03 | 0.00 | 69 | 1015.9 |
| 20260504043402 | 75 | 34 | 5.0 | 12.0 | 0.00 | 0.03 | 0.00 | 69 | 1016.1 |
| 20260504042348 | 75 | 71 | 5.0 | 12.0 | 0.00 | 0.03 | 0.00 | 69 | 1016.0 |
| 20260504041411 | 75 | 64 | 5.0 | 12.0 | 0.00 | 0.03 | 0.00 | 69 | 1016.1 |
| 20260504040406 | 75 | 61 | 6.0 | 13.0 | 0.00 | 0.03 | 0.00 | 69 | 1016.0 |
| 20260504035346 | 75 | 40 | 6.0 | 13.0 | 0.00 | 0.03 | 0.03 | 70 | 1016.3 |
| 20260504034401 | 75 | 56 | 6.0 | 14.0 | 0.00 | 0.03 | 0.03 | 69 | 1016.4 |
| 20260504033401 | 75 | 49 | 7.0 | 14.0 | 0.00 | 0.03 | 0.03 | 69 | 1016.5 |
| 20260504032422 | 75 | 109 | 6.0 | 13.0 | 0.00 | 0.03 | 0.03 | 69 | 1016.4 |
| 20260504031400 | 75 | 18 | 7.0 | 16.0 | 0.00 | 0.03 | 0.03 | 69 | 1016.4 |
| 20260504025251 | 75 | 94 | 6.0 | 15.0 | 0.00 | 0.03 | 0.03 | 69 | 1016.4 |
| 20260504024302 | 75 | 81 | 7.0 | 14.0 | 0.00 | 0.03 | 0.03 | 70 | 1016.3 |
| 20260504023259 | 75 | 59 | 7.0 | 14.0 | 0.00 | 0.03 | 0.03 | 70 | 1016.2 |
| 20260504022318 | 75 | 35 | 6.0 | 14.0 | 0.00 | 0.03 | 0.03 | 69 | 1016.2 |
| 20260504021322 | 75 | 68 | 7.0 | 14.0 | 0.00 | 0.03 | 0.03 | 69 | 1016.4 |
| 20260504020327 | 75 | 98 | 6.0 | 18.0 | 0.00 | 0.03 | 0.03 | 69 | 1016.3 |
| 20260504015251 | 75 | 41 | 8.0 | 18.0 | 0.00 | 0.03 | 0.03 | 69 | 1016.2 |
| 20260504014255 | 75 | 73 | 7.0 | 16.0 | 0.00 | 0.03 | 0.03 | 68 | 1016.1 |
| 20260504013241 | 75 | 38 | 7.0 | 16.0 | 0.00 | 0.03 | 0.03 | 68 | 1016.0 |
| 20260504012301 | 75 | 82 | 5.0 | 15.0 | 0.00 | 0.03 | 0.03 | 69 | 1015.9 |
| 20260504011313 | 75 | 74 | 6.0 | 14.0 | 0.00 | 0.03 | 0.03 | 69 | 1015.9 |
| 20260504005150 | 75 | 74 | 7.0 | 18.0 | 0.00 | 0.03 | 0.03 | 70 | 1015.8 |
| 20260504004136 | 75 | 80 | 8.0 | 18.0 | 0.00 | 0.03 | 0.03 | 70 | 1015.7 |
| 20260504002000 | 75 | 71 | 7.0 | 14.0 | 0.00 | 0.03 | 0.03 | 70 | 1015.6 |
| 20260503234723 | 74 | 55 | 6.0 | 13.0 | 0.00 | 0.03 | 0.03 | 71 | 1015.4 |
| 20260503232542 | 75 | 70 | 8.0 | 15.0 | 0.00 | 0.03 | 0.03 | 70 | 1015.3 |
| 20260503230416 | 75 | 53 | 8.0 | 17.0 | 0.00 | 0.03 | 0.03 | 71 | 1015.1 |
| 20260503225354 | 75 | 22 | 8.0 | 17.0 | 0.00 | 0.03 | 0.03 | 71 | 1015.1 |
| 20260503222131 | 75 | 49 | 7.0 | 13.0 | 0.00 | 0.03 | 0.03 | 70 | 1015.3 |
| 20260503221058 | 75 | 30 | 6.0 | 15.0 | 0.00 | 0.03 | 0.03 | 69 | 1015.4 |
| 20260503220114 | 75 | 22 | 7.0 | 15.0 | 0.00 | 0.03 | 0.03 | 69 | 1015.3 |
| 20260503215116 | 75 | 69 | 6.0 | 12.0 | 0.00 | 0.03 | 0.03 | 68 | 1015.2 |
| 20260503214107 | 75 | 26 | 6.0 | 14.0 | 0.00 | 0.03 | 0.03 | 68 | 1015.4 |
| 20260503213129 | 76 | 42 | 7.0 | 14.0 | 0.00 | 0.03 | 0.03 | 67 | 1015.2 |
| 20260503212108 | 76 | 51 | 7.0 | 14.0 | 0.00 | 0.03 | 0.03 | 67 | 1015.2 |
| 20260503211125 | 76 | 27 | 7.0 | 15.0 | 0.00 | 0.03 | 0.03 | 69 | 1015.3 |
| 20260503210126 | 76 | 55 | 7.0 | 15.0 | 0.00 | 0.03 | 0.03 | 68 | 1015.3 |
| 20260503205131 | 76 | 46 | 6.0 | 14.0 | 0.00 | 0.03 | 0.03 | 69 | 1015.4 |
| 20260503204113 | 75 | 26 | 8.0 | 16.0 | 0.00 | 0.03 | 0.03 | 69 | 1015.6 |
| 20260503203131 | 75 | 43 | 8.0 | 16.0 | 0.00 | 0.03 | 0.03 | 69 | 1015.6 |
| 20260503200950 | 75 | 32 | 6.0 | 16.0 | 0.00 | 0.03 | 0.03 | 68 | 1015.5 |
| 20260503195942 | 75 | 38 | 6.0 | 15.0 | 0.00 | 0.03 | 0.03 | 70 | 1015.5 |
| 20260503194915 | 75 | 59 | 7.0 | 15.0 | 0.00 | 0.03 | 0.03 | 69 | 1015.5 |
| 20260503193849 | 75 | 45 | 6.0 | 14.0 | 0.00 | 0.03 | 0.03 | 69 | 1015.6 |
| 20260503192815 | 75 | 48 | 6.0 | 12.0 | 0.00 | 0.03 | 0.03 | 69 | 1015.8 |
| 20260503191738 | 75 | 65 | 6.0 | 12.0 | 0.00 | 0.03 | 0.03 | 69 | 1015.9 |
| 20260503190705 | 75 | 32 | 6.0 | 13.0 | 0.00 | 0.03 | 0.03 | 69 | 1016.2 |
| 20260503185711 | 75 | 27 | 7.0 | 14.0 | 0.00 | 0.03 | 0.03 | 70 | 1016.3 |
| 20260503183534 | 75 | 18 | 9.0 | 15.0 | 0.00 | 0.03 | 0.03 | 70 | 1016.7 |
| 20260503182529 | 75 | 44 | 7.0 | 14.0 | 0.00 | 0.03 | 0.03 | 70 | 1016.9 |
| 20260503181459 | 74 | 31 | 6.0 | 13.0 | 0.00 | 0.03 | 0.03 | 69 | 1016.8 |
| 20260503180444 | 74 | 65 | 6.0 | 13.0 | 0.00 | 0.03 | 0.03 | 70 | 1017.1 |
| 20260503173217 | 74 | 355 | 7.0 | 17.0 | 0.00 | 0.03 | 0.03 | 69 | 1017.1 |
| 20260503172212 | 74 | 17 | 7.0 | 17.0 | 0.00 | 0.03 | 0.03 | 70 | 1017.0 |
| 20260503171216 | 74 | 49 | 7.0 | 13.0 | 0.00 | 0.03 | 0.03 | 69 | 1016.9 |
| 20260503170220 | 74 | 46 | 8.0 | 14.0 | 0.00 | 0.03 | 0.03 | 69 | 1017.0 |
| 20260503130629 | 73 | 31 | 11.0 | 19.0 | 0.00 | 0.02 | 0.02 | 73 | 1015.8 |